Powrót do katalogu

ATLAS 5 CENTAUR DEB

AktywnyHEO
NORAD 43952·DEBRIS·🇺🇸 United States

Wystrzelony Sep 17, 2014 z Cape Canaveral Space Force Station

Loading…

Następne Przeloty (najbliższe 24 godziny)

TLE

ŚwieżeSource: Space-Track

Epoka: Sep 13, 2026, 07:39 UTC

1 43952U 14055F   26256.31944425 -.00000245  00000-0  00000-0 0  9993
2 43952  21.4606  67.1914 5126952 306.6843  16.2438  1.97446791 57770

Śledź ATLAS 5 CENTAUR DEB w czasie rzeczywistym z AllMySat

Download on the App Store